Retour au catalogue

STARLINK-34316

ActifCommunicationsVLEO
NORAD 64707·PAYLOAD·🇺🇸 United States

Lancé Jun 28, 2025 depuis Vandenberg Space Force Base

Loading…

Prochains Passages (prochaines 24 heures)

TLE

FraisSource: CelesTrak SupGP

Époque: Sep 15, 2026, 03:48 UTC

1 64707C 25142M   26258.15881944 -.00025617  00000+0 -89113-3 0  2586
2 64707  70.0014 194.8936 0003180 273.2321 231.1026 15.29592636    14

Suivez STARLINK-34316 en temps réel avec AllMySat

Download on the App Store